Date String (YYYY-MM-DD hh:mm:ss) UTC,Instrument flags,Ambient pressure (hPa),Sample flow (lpm),Bypass flow (lpm),Sample temperature (°C),Ambient temperature (°C),ASC tube jacket temperature (°C),LED temperature (°C),Box temperature (°C),Sample RH (%),Span deviation,Mass concentration (μg/m³),Mass concentration (μg/m³),Mass concentration (μg/m³)
DateTimeUTC,F1_M11,P_M11,Q1_M11,Q2_M11,T1_M11,T2_M11,T3_M11,T4_M11,T5_M11,U1_M11,ZSPAN_M11,X0_M11,X2_M11,X1_M11
2023-05-01 01:00:00,,0828.5,5.00,0.00,30.2,28.9,00.0,38.6,31.7,14.3,0000.0,0015.44,0005.40,0003.75
2023-05-01 01:01:00,,0828.6,4.98,0.00,30.2,29.0,00.0,38.6,31.8,14.2,0000.0,0015.34,0005.42,0003.72
2023-05-01 01:02:00,,0828.5,5.00,0.00,30.3,29.1,00.0,38.7,31.8,13.9,0000.0,0016.69,0005.48,0003.70
2023-05-01 01:03:00,,0828.6,5.02,0.00,30.3,29.1,00.0,38.7,31.9,13.9,0000.0,0017.38,0005.54,0003.67
2023-05-01 01:04:00,,0828.5,5.01,0.00,30.3,29.1,00.0,38.7,31.9,13.8,0000.0,0017.86,0005.53,0003.64
2023-05-01 01:05:00,,0828.5,4.99,0.00,30.3,29.2,00.0,38.7,31.9,13.5,0000.0,0018.50,0005.55,0003.62
2023-05-01 01:06:00,,0828.5,5.00,0.00,30.4,29.2,00.0,38.7,31.9,13.7,0000.0,0018.56,0005.53,0003.61
2023-05-01 01:07:00,,0828.4,5.01,0.00,30.4,29.3,00.0,38.7,32.0,13.6,0000.0,0017.88,0005.53,0003.59
2023-05-01 01:08:00,,0828.4,5.00,0.00,30.4,29.3,00.0,38.7,32.0,13.5,0000.0,0017.16,0005.56,0003.58
2023-05-01 01:09:00,,0828.4,4.99,0.00,30.4,29.3,00.0,38.8,32.0,13.5,0000.0,0017.27,0005.53,0003.57
2023-05-01 01:10:00,,0828.4,5.02,0.00,30.4,29.2,00.0,38.8,32.0,13.7,0000.0,0017.47,0005.51,0003.56
2023-05-01 01:11:00,,0828.4,4.98,0.00,30.4,27.5,00.0,38.7,31.8,13.8,0000.0,0017.56,0005.40,0003.55
2023-05-01 01:12:00,,0828.4,5.03,0.00,30.4,26.3,00.0,38.6,31.6,14.1,0000.0,0017.36,0005.37,0003.55
2023-05-01 01:13:00,,0828.4,4.98,0.00,30.3,26.3,00.0,38.6,31.5,14.0,0000.0,0016.45,0005.31,0003.56
2023-05-01 01:14:00,,0828.4,5.00,0.00,30.2,26.6,00.0,38.6,31.4,14.2,0000.0,0015.90,0005.25,0003.55
2023-05-01 01:15:00,,0828.4,5.01,0.00,30.1,26.9,00.0,38.6,31.4,14.5,0000.0,0016.20,0005.22,0003.56
2023-05-01 01:16:00,,0828.4,4.99,0.00,30.1,27.3,00.0,38.6,31.5,14.5,0000.0,0015.32,0005.20,0003.56
2023-05-01 01:17:00,,0828.4,4.98,0.00,30.1,27.6,00.0,38.6,31.6,14.5,0000.0,0015.71,0005.24,0003.54
2023-05-01 01:18:00,,0828.4,5.02,0.00,30.1,27.9,00.0,38.6,31.6,14.3,0000.0,0016.36,0005.23,0003.54
2023-05-01 01:19:00,,0828.4,5.00,0.00,30.1,28.1,00.0,38.6,31.6,14.1,0000.0,0016.75,0005.25,0003.53
2023-05-01 01:20:00,,0828.4,4.99,0.00,30.1,28.3,00.0,38.6,31.7,14.2,0000.0,0017.41,0005.32,0003.53
2023-05-01 01:21:00,,0828.4,4.99,0.00,30.1,28.4,00.0,38.6,31.7,14.2,0000.0,0017.57,0005.33,0003.52
2023-05-01 01:22:00,,0828.4,5.01,0.00,30.1,28.5,00.0,38.6,31.7,14.1,0000.0,0016.35,0005.37,0003.52
2023-05-01 01:23:00,,0828.4,5.01,0.00,30.1,28.5,00.0,38.6,31.7,14.2,0000.0,0016.17,0005.36,0003.51
2023-05-01 01:24:00,,0828.4,5.00,0.00,30.1,28.6,00.0,38.6,31.7,14.2,0000.0,0016.59,0005.38,0003.51
2023-05-01 01:25:00,,0828.4,4.99,0.00,30.2,28.7,00.0,38.6,31.7,14.3,0000.0,0016.87,0005.38,0003.50
2023-05-01 01:26:00,,0828.4,4.98,0.00,30.2,28.7,00.0,38.6,31.7,14.1,0000.0,0016.73,0005.37,0003.50
2023-05-01 01:27:00,,0828.4,5.00,0.00,30.2,28.7,00.0,38.6,31.7,14.3,0000.0,0016.99,0005.34,0003.50
2023-05-01 01:28:00,,0828.4,5.01,0.00,30.2,28.8,00.0,38.6,31.8,14.3,0000.0,0016.42,0005.30,0003.51
2023-05-01 01:29:00,,0828.4,5.00,0.00,30.2,28.8,00.0,38.6,31.8,14.4,0000.0,0016.30,0005.28,0003.52
2023-05-01 01:30:00,,0828.4,4.99,0.00,30.2,28.8,00.0,38.6,31.7,14.3,0000.0,0016.66,0005.32,0003.52
2023-05-01 01:31:00,,0828.5,4.99,0.00,30.2,28.9,00.0,38.6,31.8,14.3,0000.0,0016.00,0005.24,0003.53
2023-05-01 01:32:00,,0828.6,5.01,0.00,30.2,28.9,00.0,38.6,31.8,14.3,0000.0,0016.08,0005.22,0003.54
2023-05-01 01:33:00,,0828.5,5.01,0.00,30.3,29.0,00.0,38.6,31.8,14.3,0000.0,0016.82,0005.20,0003.54
2023-05-01 01:34:00,,0828.6,5.00,0.00,30.3,29.0,00.0,38.6,31.9,14.3,0000.0,0017.08,0005.17,0003.55
2023-05-01 01:35:00,,0828.6,4.99,0.00,30.3,29.1,00.0,38.7,31.9,14.3,0000.0,0016.41,0005.19,0003.54
2023-05-01 01:36:00,,0828.6,4.99,0.00,30.3,29.1,00.0,38.7,31.9,14.3,0000.0,0016.56,0005.28,0003.56
2023-05-01 01:37:00,,0828.5,4.99,0.00,30.4,29.2,00.0,38.7,31.9,14.1,0000.0,0016.10,0005.32,0003.58
2023-05-01 01:38:00,,0828.5,5.00,0.00,30.4,29.2,00.0,38.7,31.9,14.0,0000.0,0015.46,0005.34,0003.59
2023-05-01 01:39:00,,0828.5,5.02,0.00,30.4,29.2,00.0,38.7,31.9,14.0,0000.0,0015.27,0005.36,0003.60
2023-05-01 01:40:00,,0828.5,5.01,0.00,30.4,29.1,00.0,38.7,31.9,14.1,0000.0,0014.65,0005.38,0003.60
2023-05-01 01:41:00,,0828.6,5.01,0.00,30.4,29.2,00.0,38.7,31.9,14.0,0000.0,0014.99,0005.35,0003.61
2023-05-01 01:42:00,,0828.6,4.98,0.00,30.4,29.2,00.0,38.8,31.9,13.9,0000.0,0014.97,0005.39,0003.61
2023-05-01 01:43:00,,0828.6,5.00,0.00,30.4,29.2,00.0,38.8,32.0,13.9,0000.0,0015.62,0005.42,0003.61
2023-05-01 01:44:00,,0828.7,5.01,0.00,30.4,29.2,00.0,38.8,32.0,13.7,0000.0,0015.44,0005.42,0003.62
2023-05-01 01:45:00,,0828.6,5.00,0.00,30.4,29.2,00.0,38.8,32.0,13.7,0000.0,0015.22,0005.46,0003.63
2023-05-01 01:46:00,,0828.6,5.01,0.00,30.4,29.2,00.0,38.8,32.0,13.6,0000.0,0015.24,0005.45,0003.65
2023-05-01 01:47:00,,0828.6,4.98,0.00,30.4,27.9,00.0,38.8,31.8,13.6,0000.0,0014.81,0005.44,0003.66
2023-05-01 01:48:00,,0828.6,5.02,0.00,30.4,26.3,00.0,38.7,31.6,13.6,0000.0,0014.99,0005.44,0003.65
2023-05-01 01:49:00,,0828.7,5.01,0.00,30.3,26.0,00.0,38.6,31.4,13.6,0000.0,0015.51,0005.51,0003.65
2023-05-01 01:50:00,,0828.6,5.00,0.00,30.2,26.3,00.0,38.6,31.3,13.7,0000.0,0015.50,0005.52,0003.65
2023-05-01 01:51:00,,0828.6,5.00,0.00,30.1,26.6,00.0,38.6,31.4,13.8,0000.0,0016.41,0005.58,0003.67
2023-05-01 01:52:00,,0828.6,5.00,0.00,30.1,27.0,00.0,38.6,31.4,13.8,0000.0,0015.35,0005.57,0003.67
2023-05-01 01:53:00,,0828.6,4.99,0.00,30.1,27.4,00.0,38.6,31.5,13.8,0000.0,0015.44,0005.59,0003.68
2023-05-01 01:54:00,,0828.7,5.00,0.00,30.1,27.7,00.0,38.6,31.6,13.7,0000.0,0014.21,0005.53,0003.67
2023-05-01 01:55:00,,0828.7,5.01,0.00,30.1,27.9,00.0,38.6,31.6,13.7,0000.0,0013.57,0005.51,0003.68
2023-05-01 01:56:00,,0828.6,4.99,0.00,30.1,28.2,00.0,38.6,31.6,13.7,0000.0,0014.61,0005.49,0003.68
2023-05-01 01:57:00,,0828.7,4.99,0.00,30.1,28.3,00.0,38.6,31.7,13.7,0000.0,0014.77,0005.48,0003.68
2023-05-01 01:58:00,,0828.7,5.00,0.00,30.2,28.5,00.0,38.6,31.7,13.7,0000.0,0014.82,0005.48,0003.67
2023-05-01 01:59:00,,0828.7,5.00,0.00,30.2,28.6,00.0,38.6,31.8,13.7,0000.0,0014.87,0005.53,0003.68
